owner,sensor,date,latitude,longitude,vertical_datum,direction_of_sea_water_velocity,sea_water_speed,upward_sea_water_velocity,qcFlag 
TABS,ioos:station:TABS:A:1,1996-06-01T00:00:00Z,29.5325,-93.8116,2.0,190.1098557,11.05160622,-99999.0,'11111222,11111222,99999999' 
TABS,ioos:station:TABS:A:1,1996-06-01T00:30:00Z,29.5325,-93.8116,2.0,198.0791023,8.152508816,-99999.0,'11133222,11111222,99999999' 
TABS,ioos:station:TABS:A:1,1996-06-01T01:00:00Z,29.5325,-93.8116,2.0,218.9651292,4.977328601,-99999.0,'11133222,11111222,99999999' 
TABS,ioos:station:TABS:A:1,1996-06-01T01:30:00Z,29.5325,-93.8116,2.0,230.2255995,2.328991198,-99999.0,'11133222,11111222,99999999' 
TABS,ioos:station:TABS:A:1,1996-06-01T02:00:00Z,29.5325,-93.8116,2.0,319.8795781,1.163872845,-99999.0,'11133222,11111222,99999999' 
TABS,ioos:station:TABS:A:1,1996-06-01T02:30:00Z,29.5325,-93.8116,2.0,0.000210459,1.49,-99999.0,'11133222,11111222,99999999' 
TABS,ioos:station:TABS:A:1,1996-06-01T03:00:00Z,29.5325,-93.8116,2.0,53.05323006,2.978002686,-99999.0,'11133222,11111222,99999999' 
TABS,ioos:station:TABS:A:1,1996-06-01T03:30:00Z,29.5325,-93.8116,2.0,23.13247837,5.676380889,-99999.0,'11133222,11111222,99999999' 
TABS,ioos:station:TABS:A:1,1996-06-01T04:00:00Z,29.5325,-93.8116,2.0,0.000210459,6.56,-99999.0,'11133222,11111222,99999999' 
TABS,ioos:station:TABS:A:1,1996-06-01T04:30:00Z,29.5325,-93.8116,2.0,348.8257549,10.78445641,-99999.0,'11111222,11111222,99999999' 
TABS,ioos:station:TABS:A:1,1996-06-01T05:00:00Z,29.5325,-93.8116,2.0,0.000210459,5.51,-99999.0,'11133222,11111222,99999999' 
TABS,ioos:station:TABS:A:1,1996-06-01T05:30:00Z,29.5325,-93.8116,2.0,345.0927645,4.625689138,-99999.0,'11133222,11111222,99999999' 
TABS,ioos:station:TABS:A:1,1996-06-01T06:00:00Z,29.5325,-93.8116,2.0,309.826921,6.979290795,-99999.0,'11133222,11111222,99999999' 
TABS,ioos:station:TABS:A:1,1996-06-01T06:30:00Z,29.5325,-93.8116,2.0,329.8718353,7.411241461,-99999.0,'11133222,11111222,99999999' 
TABS,ioos:station:TABS:A:1,1996-06-01T07:00:00Z,29.5325,-93.8116,2.0,355.5732492,7.773191108,-99999.0,'11133222,11111222,99999999' 
TABS,ioos:station:TABS:A:1,1996-06-01T07:30:00Z,29.5325,-93.8116,2.0,32.04255544,9.838902378,-99999.0,'11133222,11111222,99999999' 
TABS,ioos:station:TABS:A:1,1996-06-01T08:00:00Z,29.5325,-93.8116,2.0,35.78226059,7.901423922,-99999.0,'11133222,11111222,99999999' 
TABS,ioos:station:TABS:A:1,1996-06-01T08:30:00Z,29.5325,-93.8116,2.0,52.07777271,8.493432757,-99999.0,'11133222,11111222,99999999' 
TABS,ioos:station:TABS:A:1,1996-06-01T09:00:00Z,29.5325,-93.8116,2.0,43.76124261,9.484518965,-99999.0,'11133222,11111222,99999999' 
TABS,ioos:station:TABS:A:1,1996-06-01T09:30:00Z,29.5325,-93.8116,2.0,45.00010523,11.17228714,-99999.0,'11111222,11111222,99999999' 
TABS,ioos:station:TABS:A:1,1996-06-01T10:00:00Z,29.5325,-93.8116,2.0,59.7827967,9.477816204,-99999.0,'11133222,11111222,99999999' 
TABS,ioos:station:TABS:A:1,1996-06-01T10:30:00Z,29.5325,-93.8116,2.0,84.61361522,11.07892143,-99999.0,'11111222,11111222,99999999' 
TABS,ioos:station:TABS:A:1,1996-06-01T11:00:00Z,29.5325,-93.8116,2.0,74.30879285,9.909288572,-99999.0,'11133222,11111222,99999999' 
TABS,ioos:station:TABS:A:1,1996-06-01T11:30:00Z,29.5325,-93.8116,2.0,71.35555002,12.10527984,-99999.0,'11111222,11111222,99999999' 
TABS,ioos:station:TABS:A:1,1996-06-01T12:00:00Z,29.5325,-93.8116,2.0,76.2431841,14.42376511,-99999.0,'11111222,11111222,99999999' 
TABS,ioos:station:TABS:A:1,1996-06-01T12:30:00Z,29.5325,-93.8116,2.0,86.28580051,13.7388573,-99999.0,'11111222,11111222,99999999' 
TABS,ioos:station:TABS:A:1,1996-06-01T13:00:00Z,29.5325,-93.8116,2.0,90.0,12.07,-99999.0,'11111222,11111222,99999999' 
TABS,ioos:station:TABS:A:1,1996-06-01T13:30:00Z,29.5325,-93.8116,2.0,78.01938995,15.07844156,-99999.0,'11111222,11111222,99999999' 
TABS,ioos:station:TABS:A:1,1996-06-01T14:00:00Z,29.5325,-93.8116,2.0,76.4328386,17.77603162,-99999.0,'11111222,11111222,99999999' 
TABS,ioos:station:TABS:A:1,1996-06-01T14:30:00Z,29.5325,-93.8116,2.0,76.97756638,18.50593959,-99999.0,'11111222,11111222,99999999' 
TABS,ioos:station:TABS:A:1,1996-06-01T15:00:00Z,29.5325,-93.8116,2.0,81.52660465,21.24186903,-99999.0,'11111222,11111222,99999999' 
TABS,ioos:station:TABS:A:1,1996-06-01T15:30:00Z,29.5325,-93.8116,2.0,78.7740282,21.41982726,-99999.0,'11111222,11111222,99999999' 
TABS,ioos:station:TABS:A:1,1996-06-01T16:00:00Z,29.5325,-93.8116,2.0,79.1858412,20.62630602,-99999.0,'11111222,11111222,99999999' 
TABS,ioos:station:TABS:A:1,1996-06-01T16:30:00Z,29.5325,-93.8116,2.0,68.92436398,21.55167279,-99999.0,'11111222,11111222,99999999' 
TABS,ioos:station:TABS:A:1,1996-06-01T17:00:00Z,29.5325,-93.8116,2.0,64.10772734,22.85418999,-99999.0,'11111222,11111222,99999999' 
TABS,ioos:station:TABS:A:1,1996-06-01T17:30:00Z,29.5325,-93.8116,2.0,70.87743478,20.02498439,-99999.0,'11111222,11111222,99999999' 
TABS,ioos:station:TABS:A:1,1996-06-01T18:00:00Z,29.5325,-93.8116,2.0,66.93913134,17.48744121,-99999.0,'11111222,11111222,99999999' 
TABS,ioos:station:TABS:A:1,1996-06-01T18:30:00Z,29.5325,-93.8116,2.0,67.47608258,15.16694432,-99999.0,'11111222,11111222,99999999' 
TABS,ioos:station:TABS:A:1,1996-06-01T19:00:00Z,29.5325,-93.8116,2.0,52.73368524,13.29431834,-99999.0,'11111222,11111222,99999999' 
TABS,ioos:station:TABS:A:1,1996-06-01T19:30:00Z,29.5325,-93.8116,2.0,56.45491647,16.44968693,-99999.0,'11111222,11111222,99999999' 
TABS,ioos:station:TABS:A:1,1996-06-01T20:00:00Z,29.5325,-93.8116,2.0,68.6495969,18.40297802,-99999.0,'11111222,11111222,99999999' 
TABS,ioos:station:TABS:A:1,1996-06-01T20:30:00Z,29.5325,-93.8116,2.0,77.91152528,19.19565836,-99999.0,'11111222,11111222,99999999' 
TABS,ioos:station:TABS:A:1,1996-06-01T21:00:00Z,29.5325,-93.8116,2.0,84.53444171,17.21828098,-99999.0,'11111222,11111222,99999999' 
TABS,ioos:station:TABS:A:1,1996-06-01T21:30:00Z,29.5325,-93.8116,2.0,78.79995383,15.34219345,-99999.0,'11111222,11111222,99999999' 
TABS,ioos:station:TABS:A:1,1996-06-01T22:00:00Z,29.5325,-93.8116,2.0,163.4868353,14.14333765,-99999.0,'11111222,11111222,99999999' 
TABS,ioos:station:TABS:A:1,1996-06-01T22:30:00Z,29.5325,-93.8116,2.0,110.2224666,12.06363544,-99999.0,'11111222,11111222,99999999' 
TABS,ioos:station:TABS:A:1,1996-06-01T23:00:00Z,29.5325,-93.8116,2.0,122.3244867,11.98770203,-99999.0,'11111222,11111222,99999999' 
TABS,ioos:station:TABS:A:1,1996-06-01T23:30:00Z,29.5325,-93.8116,2.0,142.0775623,8.493432757,-99999.0,'11133222,11111222,99999999' 
TABS,ioos:station:TABS:A:1,1996-06-02T00:00:00Z,29.5325,-93.8116,2.0,125.0825629,6.733275577,-99999.0,'11133222,11111222,99999999' 
TABS,ioos:station:TABS:A:1,1996-06-02T00:30:00Z,29.5325,-93.8116,2.0,117.9076099,2.862953021,-99999.0,'11133222,11111222,99999999' 
TABS,ioos:station:TABS:A:1,1996-06-02T01:00:00Z,29.5325,-93.8116,2.0,196.3770541,5.284411036,-99999.0,'11133222,11111222,99999999' 
TABS,ioos:station:TABS:A:1,1996-06-02T01:30:00Z,29.5325,-93.8116,2.0,182.2165787,7.755804278,-99999.0,'11133222,11111222,99999999' 
TABS,ioos:station:TABS:A:1,1996-06-02T02:00:00Z,29.5325,-93.8116,2.0,163.3757064,7.305347357,-99999.0,'11133222,11111222,99999999' 
TABS,ioos:station:TABS:A:1,1996-06-02T02:30:00Z,29.5325,-93.8116,2.0,181.51787,5.661987284,-99999.0,'11133222,11111222,99999999' 
TABS,ioos:station:TABS:A:1,1996-06-02T03:00:00Z,29.5325,-93.8116,2.0,181.2273655,7.001606958,-99999.0,'11133222,11111222,99999999' 
TABS,ioos:station:TABS:A:1,1996-06-02T03:30:00Z,29.5325,-93.8116,2.0,253.3121341,4.66652976,-99999.0,'11133222,11111222,99999999' 
TABS,ioos:station:TABS:A:1,1996-06-02T04:00:00Z,29.5325,-93.8116,2.0,227.4638408,9.703406618,-99999.0,'11133222,11111222,99999999' 
TABS,ioos:station:TABS:A:1,1996-06-02T04:30:00Z,29.5325,-93.8116,2.0,268.3280016,10.2843765,-99999.0,'11111222,11111222,99999999' 
TABS,ioos:station:TABS:A:1,1996-06-02T05:00:00Z,29.5325,-93.8116,2.0,262.192876,14.28237025,-99999.0,'11111222,11111222,99999999' 
TABS,ioos:station:TABS:A:1,1996-06-02T05:30:00Z,29.5325,-93.8116,2.0,282.3624059,16.02146685,-99999.0,'11111222,11111222,99999999' 
TABS,ioos:station:TABS:A:1,1996-06-02T06:00:00Z,29.5325,-93.8116,2.0,307.1582411,12.33415583,-99999.0,'11111222,11111222,99999999' 
TABS,ioos:station:TABS:A:1,1996-06-02T06:30:00Z,29.5325,-93.8116,2.0,324.0581826,9.387230689,-99999.0,'11133222,11111222,99999999' 
TABS,ioos:station:TABS:A:1,1996-06-02T07:00:00Z,29.5325,-93.8116,2.0,349.3192872,8.039284794,-99999.0,'11133222,11111222,99999999' 
TABS,ioos:station:TABS:A:1,1996-06-02T07:30:00Z,29.5325,-93.8116,2.0,17.32224951,7.489686242,-99999.0,'11133222,11111222,99999999' 
TABS,ioos:station:TABS:A:1,1996-06-02T08:00:00Z,29.5325,-93.8116,2.0,30.09265932,9.812568471,-99999.0,'11133222,11111222,99999999' 
TABS,ioos:station:TABS:A:1,1996-06-02T08:30:00Z,29.5325,-93.8116,2.0,40.92830086,10.45621825,-99999.0,'11111222,11111222,99999999' 
TABS,ioos:station:TABS:A:1,1996-06-02T09:00:00Z,29.5325,-93.8116,2.0,210.0063562,12.21754885,-99999.0,'11111222,11111222,99999999' 
TABS,ioos:station:TABS:A:1,1996-06-02T09:30:00Z,29.5325,-93.8116,2.0,232.2666217,11.68332573,-99999.0,'11111222,11111222,99999999' 
TABS,ioos:station:TABS:A:1,1996-06-02T10:00:00Z,29.5325,-93.8116,2.0,228.8040243,11.08357343,-99999.0,'11111222,11111222,99999999' 
TABS,ioos:station:TABS:A:1,1996-06-02T10:30:00Z,29.5325,-93.8116,2.0,219.8232681,8.150828179,-99999.0,'11133222,11111222,99999999' 
TABS,ioos:station:TABS:A:1,1996-06-02T11:00:00Z,29.5325,-93.8116,2.0,234.9537335,12.19017637,-99999.0,'11111222,11111222,99999999' 
TABS,ioos:station:TABS:A:1,1996-06-02T11:30:00Z,29.5325,-93.8116,2.0,239.7823758,9.477816204,-99999.0,'11133222,11111222,99999999' 
TABS,ioos:station:TABS:A:1,1996-06-02T12:00:00Z,29.5325,-93.8116,2.0,232.55787,8.816439191,-99999.0,'11133222,11111222,99999999' 
TABS,ioos:station:TABS:A:1,1996-06-02T12:30:00Z,29.5325,-93.8116,2.0,226.0133514,11.59129415,-99999.0,'11111222,11111222,99999999' 
TABS,ioos:station:TABS:A:1,1996-06-02T13:00:00Z,29.5325,-93.8116,2.0,239.6325585,7.081560562,-99999.0,'11133222,11111222,99999999' 
TABS,ioos:station:TABS:A:1,1996-06-02T13:30:00Z,29.5325,-93.8116,2.0,224.9996843,6.957930727,-99999.0,'11133222,11111222,99999999' 
TABS,ioos:station:TABS:A:1,1996-06-02T14:00:00Z,29.5325,-93.8116,2.0,206.5647786,7.334302966,-99999.0,'11133222,11111222,99999999' 
TABS,ioos:station:TABS:A:1,1996-06-02T14:30:00Z,29.5325,-93.8116,2.0,188.5869378,3.013784996,-99999.0,'11133222,11111222,99999999' 
TABS,ioos:station:TABS:A:1,1996-06-02T15:00:00Z,29.5325,-93.8116,2.0,185.1170924,6.726812024,-99999.0,'11133222,11111222,99999999' 
TABS,ioos:station:TABS:A:1,1996-06-02T15:30:00Z,29.5325,-93.8116,2.0,185.7484395,7.487656509,-99999.0,'11133222,11111222,99999999' 
TABS,ioos:station:TABS:A:1,1996-06-02T16:00:00Z,29.5325,-93.8116,2.0,184.6129253,11.06584836,-99999.0,'11111222,11111222,99999999' 
TABS,ioos:station:TABS:A:1,1996-06-02T16:30:00Z,29.5325,-93.8116,2.0,184.114689,8.361554879,-99999.0,'11133222,11111222,99999999' 
TABS,ioos:station:TABS:A:1,1996-06-02T17:00:00Z,29.5325,-93.8116,2.0,193.510034,7.662023231,-99999.0,'11133222,11111222,99999999' 
TABS,ioos:station:TABS:A:1,1996-06-02T17:30:00Z,29.5325,-93.8116,2.0,195.4834764,8.353167064,-99999.0,'11133222,11111222,99999999' 
TABS,ioos:station:TABS:A:1,1996-06-02T18:00:00Z,29.5325,-93.8116,2.0,212.4897594,11.65403364,-99999.0,'11111222,11111222,99999999' 
TABS,ioos:station:TABS:A:1,1996-06-02T18:30:00Z,29.5325,-93.8116,2.0,221.7736409,11.1829379,-99999.0,'11111222,11111222,99999999' 
TABS,ioos:station:TABS:A:1,1996-06-02T19:00:00Z,29.5325,-93.8116,2.0,221.4982886,15.51459958,-99999.0,'11111222,11111222,99999999' 
TABS,ioos:station:TABS:A:1,1996-06-02T19:30:00Z,29.5325,-93.8116,2.0,202.9926428,26.70133517,-99999.0,'11111222,11111222,99999999' 
TABS,ioos:station:TABS:A:1,1996-06-02T20:00:00Z,29.5325,-93.8116,2.0,221.1272175,24.91876803,-99999.0,'11111222,11111222,99999999' 
TABS,ioos:station:TABS:A:1,1996-06-02T20:30:00Z,29.5325,-93.8116,2.0,214.5753805,21.53326032,-99999.0,'11111222,11111222,99999999' 
TABS,ioos:station:TABS:A:1,1996-06-02T21:00:00Z,29.5325,-93.8116,2.0,222.1855091,19.29900516,-99999.0,'11111222,11111222,99999999' 
TABS,ioos:station:TABS:A:1,1996-06-02T21:30:00Z,29.5325,-93.8116,2.0,225.3293449,18.43457892,-99999.0,'11111222,11111222,99999999' 
TABS,ioos:station:TABS:A:1,1996-06-02T22:00:00Z,29.5325,-93.8116,2.0,228.5978935,18.47777043,-99999.0,'11111222,11111222,99999999' 
TABS,ioos:station:TABS:A:1,1996-06-02T22:30:00Z,29.5325,-93.8116,2.0,229.3600139,19.43805803,-99999.0,'11111222,11111222,99999999' 
TABS,ioos:station:TABS:A:1,1996-06-02T23:00:00Z,29.5325,-93.8116,2.0,245.9014149,17.1441681,-99999.0,'11111222,11111222,99999999' 
TABS,ioos:station:TABS:A:1,1996-06-02T23:30:00Z,29.5325,-93.8116,2.0,247.2940712,13.88616938,-99999.0,'11111222,11111222,99999999' 
TABS,ioos:station:TABS:A:1,1996-06-03T00:00:00Z,29.5325,-93.8116,2.0,253.0817914,12.30241033,-99999.0,'11111222,11111222,99999999' 
TABS,ioos:station:TABS:A:1,1996-06-03T00:30:00Z,29.5325,-93.8116,2.0,226.5923456,7.377973977,-99999.0,'11133222,11111222,99999999' 
TABS,ioos:station:TABS:A:1,1996-06-03T01:00:00Z,29.5325,-93.8116,2.0,207.2132061,5.532386465,-99999.0,'11133222,11111222,99999999' 
TABS,ioos:station:TABS:A:1,1996-06-03T01:30:00Z,29.5325,-93.8116,2.0,204.5570191,7.531228319,-99999.0,'11133222,11111222,99999999' 
TABS,ioos:station:TABS:A:1,1996-06-03T02:00:00Z,29.5325,-93.8116,2.0,210.4455044,5.880926798,-99999.0,'11133222,11111222,99999999' 
TABS,ioos:station:TABS:A:1,1996-06-03T02:30:00Z,29.5325,-93.8116,2.0,248.4955396,6.083461186,-99999.0,'11133222,11111222,99999999' 
TABS,ioos:station:TABS:A:1,1996-06-03T03:00:00Z,29.5325,-93.8116,2.0,291.8017794,0.807774721,-99999.0,'11133222,11111222,99999999' 
TABS,ioos:station:TABS:A:1,1996-06-03T03:30:00Z,29.5325,-93.8116,2.0,288.3803931,3.298257116,-99999.0,'11133222,11111222,99999999' 
TABS,ioos:station:TABS:A:1,1996-06-03T04:00:00Z,29.5325,-93.8116,2.0,311.686898,5.38301031,-99999.0,'11133222,11111222,99999999' 
TABS,ioos:station:TABS:A:1,1996-06-03T04:30:00Z,29.5325,-93.8116,2.0,297.4134744,13.59678271,-99999.0,'11111222,11111222,99999999' 
TABS,ioos:station:TABS:A:1,1996-06-03T05:00:00Z,29.5325,-93.8116,2.0,298.7851886,15.471784,-99999.0,'11111222,11111222,99999999' 
TABS,ioos:station:TABS:A:1,1996-06-03T05:30:00Z,29.5325,-93.8116,2.0,271.8803471,13.71738313,-99999.0,'11111222,11111222,99999999' 
TABS,ioos:station:TABS:A:1,1996-06-03T06:00:00Z,29.5325,-93.8116,2.0,273.4187168,14.92655687,-99999.0,'11111222,11111222,99999999' 
TABS,ioos:station:TABS:A:1,1996-06-03T06:30:00Z,29.5325,-93.8116,2.0,344.237363,6.037027414,-99999.0,'11133222,11111222,99999999' 
TABS,ioos:station:TABS:A:1,1996-06-03T07:00:00Z,29.5325,-93.8116,2.0,7.021484266,10.96220781,-99999.0,'11111222,11111222,99999999' 
TABS,ioos:station:TABS:A:1,1996-06-03T07:30:00Z,29.5325,-93.8116,2.0,15.34137558,15.76162745,-99999.0,'11111222,11111222,99999999' 
TABS,ioos:station:TABS:A:1,1996-06-03T08:00:00Z,29.5325,-93.8116,2.0,348.4250487,11.86123096,-99999.0,'11111222,11111222,99999999' 
TABS,ioos:station:TABS:A:1,1996-06-03T08:30:00Z,29.5325,-93.8116,2.0,323.8587955,9.5967755,-99999.0,'11133222,11111222,99999999' 
TABS,ioos:station:TABS:A:1,1996-06-03T09:00:00Z,29.5325,-93.8116,2.0,319.0068284,12.04317649,-99999.0,'11111222,11111222,99999999' 
TABS,ioos:station:TABS:A:1,1996-06-03T09:30:00Z,29.5325,-93.8116,2.0,327.6554194,12.52303478,-99999.0,'11111222,11111222,99999999' 
TABS,ioos:station:TABS:A:1,1996-06-03T10:00:00Z,29.5325,-93.8116,2.0,299.8365161,11.67788508,-99999.0,'11111222,11111222,99999999' 
TABS,ioos:station:TABS:A:1,1996-06-03T10:30:00Z,29.5325,-93.8116,2.0,285.159724,13.11642101,-99999.0,'11111222,11111222,99999999' 
TABS,ioos:station:TABS:A:1,1996-06-03T11:00:00Z,29.5325,-93.8116,2.0,315.1258066,45.19837386,-99999.0,'11111222,11111222,99999999' 
TABS,ioos:station:TABS:A:1,1996-06-03T11:30:00Z,29.5325,-93.8116,2.0,316.8707155,35.52983254,-99999.0,'11111222,11111222,99999999' 
TABS,ioos:station:TABS:A:1,1996-06-03T12:00:00Z,29.5325,-93.8116,2.0,332.9887972,25.25491833,-99999.0,'11111222,11111222,99999999' 
TABS,ioos:station:TABS:A:1,1996-06-03T12:30:00Z,29.5325,-93.8116,2.0,344.737061,18.68922952,-99999.0,'11111222,11111222,99999999' 
TABS,ioos:station:TABS:A:1,1996-06-03T13:00:00Z,29.5325,-93.8116,2.0,356.0258691,12.84088003,-99999.0,'11111222,11111222,99999999' 
TABS,ioos:station:TABS:A:1,1996-06-03T13:30:00Z,29.5325,-93.8116,2.0,2.401696047,10.73943201,-99999.0,'11111222,11111222,99999999' 
TABS,ioos:station:TABS:A:1,1996-06-03T14:00:00Z,29.5325,-93.8116,2.0,3.838809919,15.53485114,-99999.0,'11111222,11111222,99999999' 
TABS,ioos:station:TABS:A:1,1996-06-03T14:30:00Z,29.5325,-93.8116,2.0,330.4954,14.21326493,-99999.0,'11111222,11111222,99999999' 
TABS,ioos:station:TABS:A:1,1996-06-03T15:00:00Z,29.5325,-93.8116,2.0,333.7732449,12.12864378,-99999.0,'11111222,11111222,99999999' 
TABS,ioos:station:TABS:A:1,1996-06-03T15:30:00Z,29.5325,-93.8116,2.0,272.196523,27.13993368,-99999.0,'11111222,11111222,99999999' 
TABS,ioos:station:TABS:A:1,1996-06-03T16:00:00Z,29.5325,-93.8116,2.0,280.0301904,27.38857061,-99999.0,'11111222,11111222,99999999' 
TABS,ioos:station:TABS:A:1,1996-06-03T16:30:00Z,29.5325,-93.8116,2.0,278.6476148,27.73527177,-99999.0,'11111222,11111222,99999999' 
TABS,ioos:station:TABS:A:1,1996-06-03T17:00:00Z,29.5325,-93.8116,2.0,281.2612545,32.05715521,-99999.0,'11111222,11111222,99999999' 
TABS,ioos:station:TABS:A:1,1996-06-03T17:30:00Z,29.5325,-93.8116,2.0,284.649263,33.57127492,-99999.0,'11111222,11111222,99999999' 
TABS,ioos:station:TABS:A:1,1996-06-03T18:00:00Z,29.5325,-93.8116,2.0,288.3544387,33.59923362,-99999.0,'11111222,11111222,99999999' 
TABS,ioos:station:TABS:A:1,1996-06-03T18:30:00Z,29.5325,-93.8116,2.0,291.9991413,33.42350221,-99999.0,'11111222,11111222,99999999' 
TABS,ioos:station:TABS:A:1,1996-06-03T19:00:00Z,29.5325,-93.8116,2.0,285.9752775,37.3524631,-99999.0,'11111222,11111222,99999999' 
TABS,ioos:station:TABS:A:1,1996-06-03T19:30:00Z,29.5325,-93.8116,2.0,285.1737924,38.12925911,-99999.0,'11111222,11111222,99999999' 
TABS,ioos:station:TABS:A:1,1996-06-03T20:00:00Z,29.5325,-93.8116,2.0,282.8201971,37.58694055,-99999.0,'11111222,11111222,99999999' 
TABS,ioos:station:TABS:A:1,1996-06-03T20:30:00Z,29.5325,-93.8116,2.0,281.0529826,38.86080416,-99999.0,'11111222,11111222,99999999' 
TABS,ioos:station:TABS:A:1,1996-06-03T21:00:00Z,29.5325,-93.8116,2.0,281.1507908,40.85114931,-99999.0,'11111222,11111222,99999999' 
TABS,ioos:station:TABS:A:1,1996-06-03T21:30:00Z,29.5325,-93.8116,2.0,283.5833527,36.78895486,-99999.0,'11111222,11111222,99999999' 
TABS,ioos:station:TABS:A:1,1996-06-03T22:00:00Z,29.5325,-93.8116,2.0,279.9690022,41.30357006,-99999.0,'11111222,11111222,99999999' 
TABS,ioos:station:TABS:A:1,1996-06-03T22:30:00Z,29.5325,-93.8116,2.0,277.2399479,37.85175557,-99999.0,'11111222,11111222,99999999' 
TABS,ioos:station:TABS:A:1,1996-06-03T23:00:00Z,29.5325,-93.8116,2.0,274.9727733,37.84241536,-99999.0,'11111222,11111222,99999999' 
TABS,ioos:station:TABS:A:1,1996-06-03T23:30:00Z,29.5325,-93.8116,2.0,271.9662518,39.06299016,-99999.0,'11111222,11111222,99999999' 
TABS,ioos:station:TABS:A:1,1996-06-04T00:00:00Z,29.5325,-93.8116,2.0,268.5076181,39.94354141,-99999.0,'11111222,11111222,99999999' 
TABS,ioos:station:TABS:A:1,1996-06-04T00:30:00Z,29.5325,-93.8116,2.0,270.0004209,39.63,-99999.0,'11111222,11111222,99999999' 
TABS,ioos:station:TABS:A:1,1996-06-04T01:00:00Z,29.5325,-93.8116,2.0,270.0004209,37.25,-99999.0,'11111222,11111222,99999999' 
TABS,ioos:station:TABS:A:1,1996-06-04T01:30:00Z,29.5325,-93.8116,2.0,272.3520314,32.65750297,-99999.0,'11111222,11111222,99999999' 
TABS,ioos:station:TABS:A:1,1996-06-04T02:00:00Z,29.5325,-93.8116,2.0,270.5772032,29.80151003,-99999.0,'11111222,11111222,99999999' 
TABS,ioos:station:TABS:A:1,1996-06-04T02:30:00Z,29.5325,-93.8116,2.0,275.9577198,27.26725692,-99999.0,'11111222,11111222,99999999' 
TABS,ioos:station:TABS:A:1,1996-06-04T03:00:00Z,29.5325,-93.8116,2.0,281.0022673,28.08619768,-99999.0,'11111222,11111222,99999999' 
TABS,ioos:station:TABS:A:1,1996-06-04T03:30:00Z,29.5325,-93.8116,2.0,287.0400388,23.37616307,-99999.0,'11111222,11111222,99999999' 
TABS,ioos:station:TABS:A:1,1996-06-04T04:00:00Z,29.5325,-93.8116,2.0,291.7292205,20.5286361,-99999.0,'11111222,11111222,99999999' 
TABS,ioos:station:TABS:A:1,1996-06-04T04:30:00Z,29.5325,-93.8116,2.0,295.9470389,19.06135357,-99999.0,'11111222,11111222,99999999' 
TABS,ioos:station:TABS:A:1,1996-06-04T05:00:00Z,29.5325,-93.8116,2.0,297.3293066,20.12640057,-99999.0,'11111222,11111222,99999999' 
TABS,ioos:station:TABS:A:1,1996-06-04T05:30:00Z,29.5325,-93.8116,2.0,304.5760119,21.53326032,-99999.0,'11111222,11111222,99999999' 
TABS,ioos:station:TABS:A:1,1996-06-04T06:00:00Z,29.5325,-93.8116,2.0,308.8912899,17.80707724,-99999.0,'11111222,11111222,99999999' 
TABS,ioos:station:TABS:A:1,1996-06-04T06:30:00Z,29.5325,-93.8116,2.0,306.7619103,16.92603025,-99999.0,'11111222,11111222,99999999' 
TABS,ioos:station:TABS:A:1,1996-06-04T07:00:00Z,29.5325,-93.8116,2.0,300.964105,17.37623665,-99999.0,'11111222,11111222,99999999' 
TABS,ioos:station:TABS:A:1,1996-06-04T07:30:00Z,29.5325,-93.8116,2.0,304.1470603,15.6596839,-99999.0,'11111222,11111222,99999999' 
TABS,ioos:station:TABS:A:1,1996-06-04T08:00:00Z,29.5325,-93.8116,2.0,289.6203101,18.19647493,-99999.0,'11111222,11111222,99999999' 
TABS,ioos:station:TABS:A:1,1996-06-04T08:30:00Z,29.5325,-93.8116,2.0,286.5086239,20.97459654,-99999.0,'11111222,11111222,99999999' 
TABS,ioos:station:TABS:A:1,1996-06-04T09:00:00Z,29.5325,-93.8116,2.0,284.0305174,22.72801355,-99999.0,'11111222,11111222,99999999' 
TABS,ioos:station:TABS:A:1,1996-06-04T09:30:00Z,29.5325,-93.8116,2.0,283.6880515,23.91930601,-99999.0,'11111222,11111222,99999999' 
TABS,ioos:station:TABS:A:1,1996-06-04T10:00:00Z,29.5325,-93.8116,2.0,281.8928757,23.14682268,-99999.0,'11111222,11111222,99999999' 
TABS,ioos:station:TABS:A:1,1996-06-04T10:30:00Z,29.5325,-93.8116,2.0,274.4894239,22.87015741,-99999.0,'11111222,11111222,99999999' 
TABS,ioos:station:TABS:A:1,1996-06-04T11:00:00Z,29.5325,-93.8116,2.0,273.2175125,23.8776297,-99999.0,'11111222,11111222,99999999' 
TABS,ioos:station:TABS:A:1,1996-06-04T11:30:00Z,29.5325,-93.8116,2.0,272.4673077,24.16239227,-99999.0,'11111222,11111222,99999999' 
TABS,ioos:station:TABS:A:1,1996-06-04T12:00:00Z,29.5325,-93.8116,2.0,262.7389508,23.57906911,-99999.0,'11111222,11111222,99999999' 
TABS,ioos:station:TABS:A:1,1996-06-04T12:30:00Z,29.5325,-93.8116,2.0,258.8894035,24.75392898,-99999.0,'11111222,11111222,99999999' 
TABS,ioos:station:TABS:A:1,1996-06-04T13:00:00Z,29.5325,-93.8116,2.0,257.7932126,20.43191866,-99999.0,'11111222,11111222,99999999' 
TABS,ioos:station:TABS:A:1,1996-06-04T13:30:00Z,29.5325,-93.8116,2.0,254.4170959,19.9533957,-99999.0,'11111222,11111222,99999999' 
TABS,ioos:station:TABS:A:1,1996-06-04T14:00:00Z,29.5325,-93.8116,2.0,249.9732403,16.96583921,-99999.0,'11111222,11111222,99999999' 
TABS,ioos:station:TABS:A:1,1996-06-04T14:30:00Z,29.5325,-93.8116,2.0,256.5114545,14.70560777,-99999.0,'11111222,11111222,99999999' 
TABS,ioos:station:TABS:A:1,1996-06-04T15:00:00Z,29.5325,-93.8116,2.0,260.839203,18.71872859,-99999.0,'11111222,11111222,99999999' 
TABS,ioos:station:TABS:A:1,1996-06-04T15:30:00Z,29.5325,-93.8116,2.0,268.7812826,21.16478443,-99999.0,'11111222,11111222,99999999' 
TABS,ioos:station:TABS:A:1,1996-06-04T16:00:00Z,29.5325,-93.8116,2.0,273.1717904,18.79878985,-99999.0,'11111222,11111222,99999999' 
TABS,ioos:station:TABS:A:1,1996-06-04T16:30:00Z,29.5325,-93.8116,2.0,291.9042516,15.57429292,-99999.0,'11111222,11111222,99999999' 
TABS,ioos:station:TABS:A:1,1996-06-04T17:00:00Z,29.5325,-93.8116,2.0,294.144756,15.67093169,-99999.0,'11111222,11111222,99999999' 
TABS,ioos:station:TABS:A:1,1996-06-04T17:30:00Z,29.5325,-93.8116,2.0,309.8848651,13.00599862,-99999.0,'11111222,11111222,99999999' 
TABS,ioos:station:TABS:A:1,1996-06-04T18:00:00Z,29.5325,-93.8116,2.0,294.2029515,14.53785404,-99999.0,'11111222,11111222,99999999' 